Location: Unspecified
(0.0000°N, 0.0000°E)
Time: 11:09:31
(UTC+00:00)

CZ-3B DEB - Visible Passes

Search period start: 31 May 2020 00:00
Search period end: 10 June 2020 00:00
Orbit: 990 x 41574 km, 25.6° (Epoch: 30 May)

Date Brightness Start Highest point End Pass type
(mag) Time Alt. Az. Time Alt. Az. Time Alt. Az.
31 May ? 13:52:44 10° WNW 15:24:05 68° W 22:31:29 10° WSW visible
01 Jun ? 15:32:19 10° WNW 16:59:38 41° W 21:20:49 10° WSW visible
02 Jun ? 03:28:58 40° NNW 03:28:58 40° NNW 03:33:19 10° NE visible
02 Jun ? 17:34:53 10° W 18:31:13 17° W 20:04:01 10° W visible
03 Jun ? 04:57:00 10° NW 05:00:06 15° NNW 05:03:21 10° NNE visible
04 Jun ? 10:42:21 10° ESE 16:21:50 47° SE 18:29:32 10° ESE visible
05 Jun ? 08:00:40 10° NNW 16:59:38 61° SSE 19:57:55 30° SE visible
06 Jun ? 09:30:37 10° NW 16:09:22 68° SSE 21:24:30 51° SSE visible
07 Jun ? 11:01:19 10° NW 15:00:38 75° SSE 22:51:06 49° SSW visible
08 Jun ? 12:33:37 10° WNW 13:57:13 83° WSW 00:17:41 27° WSW visible
09 Jun ? 14:09:28 10° WNW 15:39:15 55° W 21:27:48 10° WSW visible
